Wind_Speed
15 18 18 12 10 13 21 19 4 4 19 10 12 8 13 19 24 26 26 27 25 24 23 23 23 22 21 18 16 13 13 16
13 10 11 17 2 6 7 9 4 10 9 4 7 13 13 16 26 28 27 25 27 25 24 23 23 23 22 19 17 16 15 16
15 13 16 14 17 15 15 17 8 9 6 18 16 8 17 17 18 24 25 27 27 26 24 24 23 23 23 22 20 17 19 17
20 18 18 21 18 20 13 10 7 16 4 12 3 11 17 21 17 17 18 22 26 26 26 25 25 25 24 23 23 20 23 22
18 18 17 13 20 21 18 6 6 8 9 16 6 10 14 18 18 19 19 22 25 26 27 26 25 25 25 24 26 25 28 23
16 17 16 18 20 22 19 10 9 24 7 24 10 8 13 19 18 19 20 23 25 26 27 26 25 25 25 24 26 24 20 23
19 21 17 13 16 18 22 14 17 2 7 5 8 13 11 17 19 19 21 24 25 26 28 27 26 26 25 24 24 23 24 25
20 21 19 16 17 16 21 16 15 16 11 7 4 3 18 17 20 21 22 23 25 26 27 28 27 28 27 25 24 24 23 18
16 15 15 19 20 17 17 17 15 17 13 6 1 5 14 21 21 21 21 25 26 27 28 29 28 29 28 27 27 28 27 23
11 16 21 13 15 19 19 19 18 18 11 8 5 5 13 20 24 22 23 26 27 28 27 28 27 27 26 25 26 27 27 24
13 13 15 9 16 15 15 15 21 17 15 13 10 9 5 16 23 27 26 28 29 28 28 29 30 30 30 29 29 27 27 28
9 16 19 13 16 12 7 14 15 19 18 14 16 8 9 17 23 28 27 29 28 28 28 28 29 29 32 32 32 29 29 30
15 14 13 11 13 4 12 2 7 4 6 8 15 12 5 5 14 27 27 29 29 29 31 33 34 34 35 34 33 31 28 29
15 19 22 18 11 11 5 5 4 5 7 8 12 9 6 8 4 20 25 29 30 30 31 36 38 39 38 36 32 31 32 28
17 14 21 13 19 6 5 7 7 6 7 8 7 6 6 7 8 10 27 27 29 30 32 38 42 43 38 34 34 33 33 30
11 13 1 7 5 5 6 5 4 5 7 6 6 7 6 7 7 8 18 24 27 29 34 36 40 43 37 37 36 35 32 32
11 19 9 12 7 6 3 4 3 3 4 6 7 7 8 8 9 8 4 21 28 30 34 39 42 43 36 40 39 36 30 33
9 18 14 10 11 13 4 2 2 3 3 5 6 7 9 10 10 10 8 8 25 30 34 36 36 35 38 40 41 36 31 29
19 24 24 13 7 9 10 11 11 11 9 9 9 8 8 8 9 13 10 12 21 29 31 36 39 39 41 42 43 40 35 32
Wind_Direction
202 218 249 222 225 231 246 278 349 1 265 47 132 181 173 157 167 178 178 172 184 176 180 181 181 182 181 187 188 193 190 178
168 245 223 265 308 274 345 304 24 268 359 341 308 166 176 175 179 175 176 169 183 176 180 182 181 181 182 184 181 187 175 178
192 192 232 207 245 250 217 248 267 279 80 236 257 213 175 184 185 174 177 172 189 176 178 180 179 180 183 183 179 188 179 158
246 194 212 261 249 223 238 254 2 316 117 279 22 183 170 183 179 162 169 178 179 177 178 180 182 184 184 185 185 186 176 165
225 212 211 248 240 260 260 110 93 287 292 293 113 142 165 165 158 156 167 174 176 178 179 182 183 185 184 190 192 189 201 200
245 231 202 200 236 236 254 234 231 217 195 224 108 143 164 150 153 163 177 174 178 180 180 182 184 184 185 188 198 188 204 209
248 265 266 231 203 231 224 239 245 152 289 318 111 146 175 156 166 172 183 178 181 184 180 181 182 182 184 186 199 189 193 198
252 246 255 250 261 211 228 243 258 279 289 356 82 111 166 177 171 176 184 184 183 185 180 184 185 183 185 187 189 182 198 196
236 239 251 241 245 244 251 225 221 254 249 125 130 206 186 182 178 181 186 185 183 185 186 186 187 185 185 186 186 188 183 189
237 235 237 237 235 223 248 251 239 245 246 205 175 204 206 195 181 186 187 185 185 188 186 188 187 187 183 187 193 188 183 190
246 242 258 224 238 245 220 228 239 245 222 234 210 220 222 217 199 185 193 192 190 190 190 187 186 186 183 186 188 191 189 197
233 250 240 229 238 227 272 242 243 235 238 236 218 211 237 193 218 192 194 198 194 191 189 189 188 188 185 185 193 193 191 204
230 246 248 260 289 154 225 260 45 295 269 300 272 199 114 271 198 203 191 198 197 193 191 190 186 186 188 189 196 197 196 208
229 238 237 252 310 212 55 73 33 44 29 11 16 58 20 335 222 200 198 199 198 191 190 185 187 187 188 194 197 194 205 203
231 229 225 262 262 61 18 90 54 43 31 24 36 29 359 333 308 220 202 203 197 193 190 184 192 194 195 196 197 200 208 205
278 267 252 194 107 95 93 99 85 45 25 29 34 20 348 336 308 299 211 202 198 194 188 186 194 197 199 198 204 209 207 205
236 265 333 188 167 165 129 93 105 52 28 24 10 6 346 333 322 303 267 216 201 197 192 193 198 199 192 202 206 211 199 200
240 237 241 247 213 179 210 239 303 299 329 351 354 346 342 338 326 306 264 221 207 204 200 195 198 197 190 200 205 205 189 187
261 268 276 291 264 192 243 265 277 279 278 302 313 317 320 322 326 313 262 217 219 208 204 199 200 197 195 202 207 208 200 189
Height
1464 1471 1472 1476 1481 1473 1488 1465 1481 1514 1485 1454 1450 1454 1458 1462 1472 1482 1490 1498 1509 1517 1524 1530 1535 1540 1544 1546 1549 1551 1554 1556
1460 1468 1466 1470 1477 1488 1492 1504 1514 1503 1498 1528 1458 1456 1457 1460 1467 1476 1485 1496 1505 1513 1521 1528 1533 1537 1542 1546 1549 1550 1552 1555
1455 1470 1475 1477 1481 1474 1480 1471 1486 1475 1508 1480 1460 1451 1455 1460 1464 1471 1481 1492 1501 1509 1518 1525 1530 1535 1540 1545 1548 1549 1551 1554
1460 1450 1461 1461 1459 1462 1477 1475 1496 1485 1473 1461 1447 1447 1451 1457 1464 1470 1481 1490 1499 1508 1515 1521 1526 1532 1538 1543 1547 1551 1552 1552
1463 1454 1452 1461 1457 1452 1447 1478 1539 1549 1486 1452 1446 1446 1451 1455 1465 1474 1483 1490 1498 1506 1513 1518 1523 1529 1535 1539 1543 1547 1548 1552
1464 1453 1444 1460 1459 1452 1451 1466 1476 1497 1462 1458 1445 1447 1451 1457 1467 1476 1483 1490 1496 1503 1510 1516 1521 1527 1532 1537 1539 1546 1547 1550
1444 1439 1436 1440 1448 1450 1454 1451 1467 1462 1458 1444 1442 1445 1453 1459 1468 1476 1483 1489 1494 1500 1508 1514 1520 1525 1530 1535 1537 1543 1547 1550
1452 1441 1440 1446 1438 1438 1444 1444 1447 1445 1447 1437 1440 1446 1453 1460 1468 1475 1481 1487 1492 1498 1506 1512 1517 1522 1527 1533 1536 1540 1542 1546
1459 1444 1446 1455 1443 1439 1438 1435 1445 1451 1440 1443 1444 1450 1450 1457 1465 1473 1479 1485 1490 1496 1503 1510 1515 1520 1524 1530 1534 1537 1541 1546
1453 1446 1469 1434 1425 1431 1437 1434 1432 1432 1433 1437 1443 1447 1451 1452 1460 1469 1477 1482 1488 1494 1501 1508 1514 1519 1523 1527 1531 1534 1538 1542
1457 1456 1440 1431 1428 1427 1431 1435 1430 1428 1431 1436 1441 1447 1449 1451 1453 1462 1471 1478 1484 1490 1497 1504 1510 1516 1521 1524 1529 1533 1536 1538
1450 1458 1460 1432 1423 1423 1424 1442 1426 1426 1430 1434 1437 1447 1442 1446 1450 1455 1465 1473 1480 1486 1493 1501 1507 1513 1518 1521 1525 1529 1533 1534
1454 1455 1439 1426 1423 1427 1451 1446 1432 1433 1434 1437 1433 1438 1444 1447 1447 1451 1459 1468 1475 1482 1487 1493 1501 1507 1513 1518 1521 1525 1530 1530
1449 1453 1458 1429 1430 1440 1437 1441 1443 1443 1445 1445 1441 1440 1448 1447 1445 1450 1455 1462 1470 1477 1485 1489 1496 1501 1507 1512 1518 1522 1524 1528
1433 1433 1431 1432 1432 1438 1440 1445 1448 1449 1450 1450 1449 1452 1452 1453 1451 1451 1453 1458 1465 1473 1481 1484 1490 1496 1500 1507 1513 1517 1520 1524
1435 1427 1428 1429 1439 1444 1447 1449 1451 1454 1454 1454 1455 1455 1457 1456 1455 1452 1453 1456 1463 1469 1476 1482 1486 1492 1497 1501 1507 1512 1516 1520
1435 1434 1435 1435 1444 1448 1451 1451 1453 1455 1456 1456 1456 1456 1458 1457 1455 1451 1452 1455 1460 1467 1472 1476 1480 1485 1493 1496 1501 1506 1512 1516
1439 1437 1437 1437 1442 1448 1452 1453 1454 1455 1456 1457 1458 1457 1456 1455 1456 1454 1451 1454 1459 1463 1467 1471 1477 1484 1489 1491 1495 1499 1506 1513
1443 1442 1439 1440 1442 1447 1450 1452 1453 1454 1455 1456 1456 1457 1458 1457 1454 1451 1450 1451 1457 1460 1465 1466 1470 1476 1482 1485 1488 1493 1497 1504